Location: ??????????
(54.8537°N, 38.8755°E)
Time: 22:20:30
(UTC+00:00)

Transit 2A Rocket - Pass Details

Date: 22 September 2024
Orbit: 582 x 908 km, 66.7° (Epoch: 09 October)

Event Time Altitude Azimuth Distance (km) Brightness Sun altitude
Exits shadow 21:11:37 46° 350° (N) 1,215 6.2 -35.3°
Drops below altitude 10° 21:16:39 10° 40° (NE) 2,569 8.2 -35.3°
Sets 21:19:13 0° 47° (NE) 3,483 8.9 -35.3°
